SL-14 R/B, 16409

Orbit data source: Space-Track

SL-14 R/B, 16409 is space debris in LEO originally from a launch on Thu, 26 Dec 1985 UTC launched from the Plesetsk Missile And Space Complex (PKMTR). Debris objects in space refer to the collection of defunct objects orbiting the Earth. Examples of debris include non-operational satellites, rocket bodies, and fragments generated from explosions, collisions, or faulty payload assembly.

Loading next visibility...
Identifier
16409, 1985-119B
Orbit
LEO
Country
Flag of CISCIS
Related business
Manufacturer
Yuzhnoe
Mission
Spacecraft
Bus & Motor
S5M, Unknown motor
Mass
1,600 kg wet, 1,600 kg dry
Launch date (UTC)
1985-12-26 (40 years ago)
Launch vehicle
Unknown
Launch site
Plesetsk Missile And Space Complex (PKMTR)
Object type
Payload
Rocket body
Debris
Shape & HBR
Unknown
Radar Cross Section
Large (>1 m²)

Expand to show TLE details & history
Last TLE update: 2 days ago

TLE from 2 days ago
0 SL-14 R/B
1 16409U 85119B   26171.34228240  .00000036  00000-0  18527-4 0  9992
2 16409  82.5373 259.8321 0015793 140.9426 219.2878 13.84927868 45902
Epoch: 2026-06-20T08:12Z
TLE epoch observation values (Epoch: 2026-06-20T08:12:53.199Z)
Latitude
-0.00003°
Longitude
-131.94785°
Altitude
958.325 km
Speed
7.368 km/s
True Right ascension
17h 19m 19s
True Declination
0° 00' 00"
Sunlit
Object was in full shadow at epoch
Visualization orbit readout
Latitude
Unknown
Longitude
Unknown
Altitude
Unknown
Speed
Unknown
Apparent Right ascension
Unknown
Apparent Declination
Unknown
Sunlit
N/A
Visualization observer readout
Local Sidereal Time
23:08:33
Azimuth
Unknown
Elevation
Unknown
Doppler factor
Unknown
Orbital elements
Apogee altitude
955.174 km
Perigee altitude
932.048 km
Semi-major axis
7,321.748 km
Eccentricity
0.00158
Inclination
82.5373°
RAAN
259.8321°
Arg. of periapsis
140.9426°
True anomaly
219.17338°
Mean anomaly
219.2878°
Eccentric anomaly
219.23057°
Mean motion
3.46434 °/min
Orbital period
103.92 mins
BSTAR
0.000018527
Loading maneuver chart data...
Computing Atmospheric mass density...
Loading historical data...
Loading historical data...
Loading historical data...
Loading historical data...
Loading historical data...
Loading historical data...
Loading historical data...
Other satellites on launch #119 in the year 1985 (1985-12-26 UTC)

Documentation

Showing up to 5 results
|